• Em Portugal
  • Lista de países
  • Para 7 dias
  • Temperatura da água
  • Mapas de satélite
  • Mapa do tempo
  • Widgets de tempo
  • user-avatar
    Iniciar Sessão

    Previsão horária em Malanje

    Hoje, 19 Fevereiro, Segunda-feira

    Tempo Temperatura Precipitação Vento Pressão Humidade
    00:00 +21°C° 0,4 mm 1 m/s 664 mmHg 97%
    01:00 +20°C° 0 mm 1 m/s 664 mmHg 97%
    02:00 +20°C° 0,1 mm 1 m/s 663 mmHg 97%
    03:00 +20°C° 0,1 mm 1 m/s 663 mmHg 97%
    04:00 +20°C° 0,1 mm 1 m/s 663 mmHg 98%
    05:00 +20°C° 0,2 mm 1 m/s 664 mmHg 98%
    06:00 +20°C° 0,2 mm 1 m/s 664 mmHg 97%
    07:00 +20°C° 0,2 mm 1 m/s 664 mmHg 97%
    08:00 +21°C° 0,5 mm 1 m/s 665 mmHg 95%
    09:00 +21°C° 0,5 mm 2 m/s 665 mmHg 92%
    10:00 +23°C° 0,5 mm 2 m/s 665 mmHg 90%
    11:00 +24°C° 0,7 mm 2 m/s 665 mmHg 88%
    12:00 +25°C° 0,7 mm 2 m/s 665 mmHg 86%
    13:00 +25°C° 0,7 mm 2 m/s 664 mmHg 84%
    14:00 +25°C° 0,5 mm 2 m/s 664 mmHg 85%
    15:00 +25°C° 0,5 mm 2 m/s 663 mmHg 87%
    16:00 +24°C° 0,5 mm 2 m/s 663 mmHg 89%
    17:00 +23°C° 0,4 mm 2 m/s 663 mmHg 91%
    18:00 +21°C° 0,4 mm 2 m/s 663 mmHg 94%
    19:00 +20°C° 0,4 mm 2 m/s 663 mmHg 97%
    20:00 +20°C° 0 mm 2 m/s 664 mmHg 97%
    21:00 +20°C° 0 mm 2 m/s 664 mmHg 97%
    22:00 +19°C° 0 mm 2 m/s 665 mmHg 98%
    23:00 +19°C° 0,3 mm 2 m/s 665 mmHg 98%

    Amanhã, 20 Fevereiro, Terça-feira

    Tempo Temperatura Precipitação Vento Pressão Humidade
    00:00 +19°C° 0,3 mm 2 m/s 664 mmHg 98%
    01:00 +19°C° 0,3 mm 2 m/s 664 mmHg 98%
    02:00 +19°C° 0,5 mm 2 m/s 664 mmHg 98%
    03:00 +19°C° 0,5 mm 2 m/s 664 mmHg 98%
    04:00 +20°C° 0,5 mm 1 m/s 664 mmHg 98%
    05:00 +20°C° 1,1 mm 1 m/s 664 mmHg 98%
    06:00 +20°C° 1,1 mm 1 m/s 664 mmHg 98%
    07:00 +20°C° 1,1 mm 1 m/s 665 mmHg 98%
    08:00 +20°C° 0,9 mm 2 m/s 665 mmHg 95%
    09:00 +20°C° 0,9 mm 2 m/s 665 mmHg 93%
    10:00 +21°C° 0,9 mm 2 m/s 665 mmHg 90%
    11:00 +24°C° 0,2 mm 2 m/s 665 mmHg 83%
    12:00 +25°C° 0,2 mm 2 m/s 664 mmHg 75%
    13:00 +27°C° 0,2 mm 2 m/s 664 mmHg 68%
    14:00 +27°C° 0,2 mm 3 m/s 664 mmHg 69%
    15:00 +27°C° 0,2 mm 3 m/s 663 mmHg 71%
    16:00 +27°C° 0,2 mm 3 m/s 662 mmHg 73%
    17:00 +25°C° 0,2 mm 2 m/s 663 mmHg 79%
    18:00 +23°C° 0,2 mm 2 m/s 663 mmHg 86%
    19:00 +21°C° 0,2 mm 2 m/s 663 mmHg 93%
    20:00 +20°C° 0,2 mm 2 m/s 664 mmHg 94%
    21:00 +20°C° 0,2 mm 2 m/s 664 mmHg 95%
    22:00 +19°C° 0,2 mm 2 m/s 665 mmHg 97%
    23:00 +19°C° 0 mm 2 m/s 664 mmHg 97%

    Depois de amanhã, 21 Fevereiro, Quarta-feira

    Tempo Temperatura Precipitação Vento Pressão Humidade
    00:00 +19°C° 0 mm 2 m/s 664 mmHg 98%
    01:00 +18°C° 0 mm 2 m/s 664 mmHg 98%
    02:00 +18°C° 0 mm 2 m/s 663 mmHg 98%
    03:00 +18°C° 0 mm 2 m/s 663 mmHg 97%
    04:00 +18°C° 0 mm 2 m/s 663 mmHg 97%
    05:00 +18°C° 0 mm 2 m/s 663 mmHg 96%
    06:00 +19°C° 0 mm 2 m/s 664 mmHg 96%
    07:00 +19°C° 0 mm 2 m/s 664 mmHg 95%
    08:00 +20°C° 0 mm 2 m/s 665 mmHg 89%
    09:00 +23°C° 0 mm 2 m/s 665 mmHg 82%
    10:00 +25°C° 0 mm 2 m/s 666 mmHg 76%
    11:00 +25°C° 0,4 mm 3 m/s 665 mmHg 74%
    12:00 +26°C° 0,4 mm 3 m/s 664 mmHg 72%
    13:00 +27°C° 0,4 mm 3 m/s 664 mmHg 69%
    14:00 +27°C° 0,7 mm 3 m/s 663 mmHg 73%
    15:00 +26°C° 0,7 mm 3 m/s 663 mmHg 77%
    16:00 +26°C° 0,7 mm 3 m/s 662 mmHg 81%
    17:00 +24°C° 0,6 mm 3 m/s 662 mmHg 85%
    18:00 +23°C° 0,6 mm 2 m/s 663 mmHg 90%
    19:00 +20°C° 0,6 mm 2 m/s 663 mmHg 94%
    20:00 +20°C° 0,2 mm 2 m/s 663 mmHg 95%
    21:00 +19°C° 0,2 mm 2 m/s 664 mmHg 96%
    22:00 +19°C° 0,2 mm 2 m/s 665 mmHg 96%
    23:00 +19°C° 0,2 mm 2 m/s 664 mmHg 96%

    22 Fevereiro, Quinta-feira

    Tempo Temperatura Precipitação Vento Pressão Humidade
    00:00 +19°C° 0,2 mm 2 m/s 664 mmHg 97%
    01:00 +18°C° 0,2 mm 2 m/s 663 mmHg 97%
    02:00 +18°C° 0,2 mm 2 m/s 663 mmHg 97%
    03:00 +18°C° 0,2 mm 2 m/s 663 mmHg 97%
    04:00 +18°C° 0,2 mm 2 m/s 663 mmHg 97%
    05:00 +18°C° 0,2 mm 2 m/s 663 mmHg 96%
    06:00 +18°C° 0,2 mm 2 m/s 663 mmHg 96%
    07:00 +18°C° 0,2 mm 2 m/s 664 mmHg 95%
    08:00 +19°C° 0,4 mm 2 m/s 664 mmHg 94%
    09:00 +19°C° 0,4 mm 2 m/s 664 mmHg 93%
    10:00 +20°C° 0,4 mm 2 m/s 665 mmHg 91%
    11:00 +20°C° 0,3 mm 2 m/s 664 mmHg 89%
    12:00 +21°C° 0,3 mm 2 m/s 663 mmHg 88%
    13:00 +21°C° 0,3 mm 2 m/s 663 mmHg 86%
    14:00 +23°C° 0 mm 2 m/s 662 mmHg 81%
    15:00 +24°C° 0 mm 2 m/s 662 mmHg 77%
    16:00 +25°C° 0 mm 2 m/s 662 mmHg 72%
    17:00 +24°C° 0,3 mm 2 m/s 662 mmHg 79%
    18:00 +22°C° 0,3 mm 1 m/s 662 mmHg 85%
    19:00 +21°C° 0,3 mm 1 m/s 662 mmHg 91%
    20:00 +21°C° 0 mm 1 m/s 663 mmHg 92%
    21:00 +20°C° 0 mm 1 m/s 663 mmHg 92%
    22:00 +20°C° 0 mm 1 m/s 663 mmHg 93%
    23:00 +20°C° 0 mm 1 m/s 663 mmHg 93%

    23 Fevereiro, Sexta-feira

    Tempo Temperatura Precipitação Vento Pressão Humidade
    00:00 +20°C° 0 mm 1 m/s 663 mmHg 93%
    01:00 +18°C° 0 mm 0 m/s 662 mmHg 93%
    02:00 +17°C° 0 mm 0 m/s 662 mmHg 93%
    03:00 +17°C° 0 mm 0 m/s 662 mmHg 93%
    04:00 +17°C° 0 mm 0 m/s 662 mmHg 93%
    05:00 +17°C° 0 mm 0 m/s 662 mmHg 92%
    06:00 +18°C° 0 mm 0 m/s 662 mmHg 91%
    07:00 +18°C° 0 mm 0 m/s 663 mmHg 90%
    08:00 +20°C° 0 mm 0 m/s 663 mmHg 84%
    09:00 +22°C° 0 mm 0 m/s 664 mmHg 78%
    10:00 +24°C° 0 mm 0 m/s 664 mmHg 71%
    11:00 +25°C° 0 mm 0 m/s 664 mmHg 65%
    12:00 +28°C° 0 mm 1 m/s 664 mmHg 58%
    13:00 +30°C° 0 mm 1 m/s 663 mmHg 51%
    14:00 +29°C° 0 mm 1 m/s 663 mmHg 53%
    15:00 +29°C° 0 mm 2 m/s 662 mmHg 56%
    16:00 +29°C° 0 mm 2 m/s 662 mmHg 58%
    17:00 +27°C° 0,1 mm 2 m/s 662 mmHg 66%
    18:00 +25°C° 0,1 mm 1 m/s 662 mmHg 74%
    19:00 +22°C° 0,1 mm 1 m/s 662 mmHg 82%
    20:00 +22°C° 0,1 mm 1 m/s 662 mmHg 84%
    21:00 +21°C° 0,1 mm 1 m/s 663 mmHg 85%
    22:00 +21°C° 0,1 mm 1 m/s 663 mmHg 87%
    23:00 +20°C° 0 mm 1 m/s 663 mmHg 88%

    24 Fevereiro, Sábado

    Tempo Temperatura Precipitação Vento Pressão Humidade
    00:00 +20°C° 0 mm 1 m/s 663 mmHg 89%
    01:00 +20°C° 0 mm 1 m/s 662 mmHg 90%
    02:00 +19°C° 0 mm 1 m/s 662 mmHg 92%
    03:00 +19°C° 0 mm 1 m/s 662 mmHg 93%
    04:00 +19°C° 0 mm 1 m/s 662 mmHg 94%
    05:00 +19°C° 0 mm 1 m/s 663 mmHg 93%
    06:00 +18°C° 0 mm 0 m/s 664 mmHg 92%
    07:00 +18°C° 0 mm 0 m/s 664 mmHg 92%
    08:00 +22°C° 0,1 mm 1 m/s 665 mmHg 83%
    09:00 +25°C° 0,1 mm 1 m/s 665 mmHg 74%
    10:00 +27°C° 0,1 mm 1 m/s 666 mmHg 65%
    11:00 +28°C° 0 mm 2 m/s 665 mmHg 60%
    12:00 +29°C° 0 mm 2 m/s 665 mmHg 56%
    13:00 +30°C° 0 mm 2 m/s 664 mmHg 51%
    14:00 +29°C° 0 mm 2 m/s 664 mmHg 54%
    15:00 +29°C° 0 mm 3 m/s 663 mmHg 57%
    16:00 +29°C° 0 mm 3 m/s 663 mmHg 60%
    17:00 +27°C° 0,7 mm 2 m/s 663 mmHg 69%
    18:00 +24°C° 0,7 mm 2 m/s 663 mmHg 79%
    19:00 +21°C° 0,7 mm 2 m/s 663 mmHg 88%
    20:00 +20°C° 0,6 mm 2 m/s 663 mmHg 90%
    21:00 +20°C° 0,6 mm 2 m/s 664 mmHg 92%
    22:00 +20°C° 0,6 mm 1 m/s 664 mmHg 94%
    23:00 +20°C° 0 mm 1 m/s 664 mmHg 94%
    Mostrar mais